Starlink 31032

operational
NORAD ID: 58535 Int'l Des: 2023-192 Owner: SPXS Country: US Constellation: starlink
LEOCIRCULAR

Über Starlink 31032

Beschreibung wird geladen...

Live-Position

3D-Globus wird geladen...

Nächste Überflüge

Höhenverlauf

Altitude vs Time

uPlot chart will show altitude changes over time

Zweizeiliger Elementsatz

1 58535U 23192E 25258.43162667 -.00000980 00000-0 -20997-4 0 9990
2 58535 53.1621 156.7241 0000514 131.5521 228.5524 15.30193300 99157
Epoch: 15. Sept. 2025 • Age: 24 hours

Aktueller Status

Höhe 480.9 km
Geschwindigkeit 7.63 km/s
Subsatellitenpunkt 50.24°N, 67.17°E
Startdatum 8. Dez. 2023
Alter 1.7 years
Typ internet

Technische Details

Klassifizierung Payload
Masse 730.00 kg
Trockenmasse 700.00 kg
Gesamtmasse 730.00 kg
Länge 0.30 m
Durchmesser 4.10 m
Spannweite 29.00 m
Form Box + pan
Hersteller SPXS
Bus-Typ Starlink V2M
Phasenstatus In Orbit
Besitzer/Staat SPXS/US

Große Konstellationen

Loading constellations...